STARLINK-2727, 48652

Orbit data source: Space-Track

STARLINK-2727, 48652 is a payload satellite owned by SpaceX/Seattle (US) in LEO that was launched on Wed, 26 May 2021 UTC via an FALCON 9 launch vehicle from the Air Force Eastern Test Range (AFETR). Payload-class satellites include a variety of spacecraft equipped with specific instruments for various scientific and technological missions. These include communications satellites like Starlink; space stations such as the ISS; scientific satellites like the Hubble; Earth observation satellites from companies like Planet Labs, Umbra, and HawkEye 360; GPS; miniature CubeSats for education and research; and military/defense satellites.

Loading next visibility...
Identifier
48652, 2021-044Q
Orbit
LEO
Country
Flag of USUS
Related business
Manufacturer
SpaceX/Seattle
Mission
Operational Commercial Communications
Bus & Motor
STARLINK, Unknown motor
Mass
260 kg wet, ~248 kg dry
Launch date (UTC)
2021-05-26 (5 years ago)
Launch vehicle
FALCON 9
Launch site
Air Force Eastern Test Range (AFETR)
Object type
Payload
Rocket body
Debris
Shape & HBR
Box + 1 Pan, 10.1 m
Radar Cross Section
13.562 m², Large (>1 m²)

Expand to show TLE details & history
Last TLE update: 1 day ago

TLE from 1 day ago
0 STARLINK-2727
1 48652U 21044Q   25348.81308066  .00006422  00000-0  43875-3 0  9994
2 48652  53.0530 142.5113 0001209 111.1823 248.9295 15.07318200250912
Epoch: 2025-12-14T19:30Z
TLE epoch observation values (Epoch: 2025-12-14T19:30:50.169Z)
Latitude
-0.00005°
Longitude
126.08161°
Altitude
545.579 km
Speed
7.59 km/s
True Right ascension
09h 30m 02s
True Declination
0° 00' 00"
Sunlit
Object was in full shadow at epoch
Visualization orbit readout
Latitude
Unknown
Longitude
Unknown
Altitude
Unknown
Speed
Unknown
Apparent Right ascension
Unknown
Apparent Declination
Unknown
Sunlit
N/A
Visualization observer readout
Local Sidereal Time
23:01:35
Azimuth
Unknown
Elevation
Unknown
Doppler factor
Unknown
Orbital elements
Apogee altitude
545.507 km
Perigee altitude
543.833 km
Semi-major axis
6,922.807 km
Eccentricity
0.00012
Inclination
53.053°
RAAN
142.5113°
Arg. of periapsis
111.1823°
True anomaly
248.91657°
Mean anomaly
248.9295°
Eccentric anomaly
248.92304°
Mean motion
3.76808 °/min
Orbital period
95.54 mins
BSTAR
0.00043875
Loading maneuver chart data...
Computing Atmospheric mass density...
Loading historical data...
Loading historical data...
Loading historical data...
Loading historical data...
Loading historical data...
Loading historical data...
Loading historical data...

Documentation

Showing up to 5 results
|